Location: Góry Miechowskie
(50.3599°N, 20.1803°E)
Time: 23:55:54
(UTC+00:00)

Vanguard 1 - All Passes

Search period start: 11 September 2024 00:00
Search period end: 21 September 2024 00:00
Orbit: 649 x 3825 km, 34.2° (Epoch: 11 September)

Date Brightness Start Highest point End Pass type
(mag) Time Alt. Az. Time Alt. Az. Time Alt. Az.
11 Sep - 12:11:10 10° SSW 12:15:04 14° S 12:18:13 10° SE daylight
11 Sep - 14:31:12 10° SW 14:34:18 14° S 14:36:57 10° SSE daylight
12 Sep - 12:29:48 10° SSW 12:34:37 17° S 12:38:19 10° SE daylight
12 Sep - 14:50:53 10° SW 14:53:43 14° SSW 14:56:11 10° SSE daylight
13 Sep - 10:29:52 10° S 10:34:16 13° SSE 10:37:52 10° SE daylight
13 Sep - 12:48:52 10° SW 12:54:09 18° S 12:58:05 10° SE daylight
13 Sep - 15:10:53 10° SW 15:13:05 12° SSW 15:15:04 10° S daylight
14 Sep - 10:47:38 10° SSW 10:53:53 17° SSE 10:58:33 10° SE daylight
14 Sep - 13:08:11 10° SW 13:13:38 19° S 13:17:38 10° SE daylight
14 Sep - 15:31:57 10° SSW 15:32:23 10° SSW 15:32:49 10° SSW daylight
15 Sep - 08:50:57 10° SSE 08:52:55 10° SSE 08:54:43 10° SE daylight
15 Sep - 11:06:07 10° SSW 11:13:29 20° S 11:18:40 10° SE daylight
15 Sep - 13:27:43 10° SW 13:33:05 19° S 13:37:02 10° SE daylight
16 Sep - 09:06:03 10° S 09:12:32 15° SSE 09:17:38 10° SE daylight
16 Sep - 11:25:03 10° SW 11:33:04 23° S 11:38:29 10° SE daylight
16 Sep - 13:47:26 10° WSW 13:52:28 19° SSW 13:56:16 10° SSE daylight
17 Sep - 09:23:29 10° SSW 09:32:11 19° SSE 09:38:25 10° ESE daylight
17 Sep - 11:44:15 10° SW 11:52:36 25° S 11:58:07 10° SE daylight
17 Sep - 14:07:20 10° WSW 14:11:47 17° SSW 14:15:16 10° SSE daylight
18 Sep - 07:28:13 10° SSE 07:30:36 10° SSE 07:32:50 10° SE daylight
18 Sep - 09:41:42 10° SSW 09:51:48 23° SSE 09:58:38 10° ESE daylight
18 Sep - 12:03:41 10° SW 12:12:06 26° S 12:17:36 10° SE daylight
18 Sep - 14:27:31 10° WSW 14:31:03 14° SSW 14:33:57 10° S daylight
19 Sep - 07:42:13 10° S 07:50:13 15° SSE 07:56:32 10° ESE daylight
19 Sep - 10:00:24 10° SW 10:11:24 26° S 10:18:32 10° ESE daylight
19 Sep - 12:23:18 10° WSW 12:31:33 26° SSW 12:36:58 10° SE daylight
19 Sep - 14:48:24 10° SW 14:50:13 11° SSW 14:51:51 10° SSW daylight
20 Sep - 07:59:05 10° SSW 08:09:49 19° SSE 08:17:39 10° ESE daylight
20 Sep - 10:19:27 10° SW 10:31:00 29° S 10:38:15 10° ESE daylight
20 Sep - 12:43:03 10° WSW 12:50:55 25° SSW 12:56:11 10° SE daylight
